Greenville, WI

10:56 PM CST on February 08, 2016 (GMT -0600)
Outagamie County Regional

Weather History for KATW - November, 2013

Change the Weather History Date:

Sunday, November 17, 2013

  Actual Average Record
Temperature  
Mean Temperature 47 °F -  
Max Temperature 55 °F 43 °F 66 °F (1953)
Min Temperature 37 °F 28 °F -1 °F (1959)
Degree Days  
Heating Degree Days 18    
Moisture  
Dew Point 47 °F    
Average Humidity 92    
Maximum Humidity 100    
Minimum Humidity 75    
Precipitation  
Precipitation 0.00 in - - ()
Sea Level Pressure  
Sea Level Pressure 29.37 in    
Wind  
Wind Speed 14 mph (SW)    
Max Wind Speed 30 mph    
Max Gust Speed 40 mph    
Visibility 8 miles    
Events Fog , Rain    
Averages and records for this station are not official NWS values.
T = Trace of Precipitation, MM = Missing Value Source: NWS Daily Summary

Daily Weather History Graph

Daily Weather History Graph

Search for Another Location

Airport or City:

Trip Planner

Search our weather history database for the weather conditions in past years. The results will help you decide how hot, cold, wet, or windy it might be!

Date:

Astronomy

Nov. 17, 2013 Rise Set
Actual Time 6:52 AM CST 4:25 PM CST
Civil Twilight 6:21 AM CST 4:56 PM CST
Nautical Twilight 5:45 AM CST 5:31 PM CST
Astronomical Twilight 5:11 AM CST 6:06 PM CST
Moon 4:42 PM CST (11/17) 6:46 AM CST (11/17)
Length of Visible Light 10h 35m
Length of Day
9h 32m
Full, 100% of the Moon is Illuminated
Nov 17
Full
Nov 25
Last Quarter
Dec 2
New
Dec 9
First Quarter
Dec 17
Full

Hourly Weather History & Observations

Time (CST) Temp. Windchill Dew Point Humidity Pressure Visibility Wind Dir Wind Speed Gust Speed Precip Events Conditions
12:15 AM 55.4 °F - 51.8 °F 88% 29.43 in 10.0 mi South 16.1 mph 23.0 mph N/A   Mostly Cloudy
12:35 AM 55.4 °F - 51.8 °F 88% 29.43 in 10.0 mi South 17.3 mph - N/A   Overcast
12:55 AM 53.6 °F - 51.8 °F 94% 29.43 in 10.0 mi SSW 15.0 mph 19.6 mph N/A   Scattered Clouds
1:15 AM 53.6 °F - 51.8 °F 94% 29.43 in 10.0 mi South 17.3 mph 21.9 mph N/A   Scattered Clouds
1:55 AM 53.6 °F - 51.8 °F 94% 29.43 in 10.0 mi SSW 16.1 mph - N/A   Mostly Cloudy
2:15 AM 53.6 °F - 51.8 °F 94% 29.44 in 10.0 mi SSW 16.1 mph - N/A   Overcast
2:35 AM 53.6 °F - 51.8 °F 94% 29.42 in 10.0 mi SSW 11.5 mph - N/A   Mostly Cloudy
2:55 AM 53.6 °F - 51.8 °F 94% 29.43 in 7.0 mi SSW 11.5 mph 17.3 mph N/A   Mostly Cloudy
3:15 AM 53.6 °F - 51.8 °F 94% 29.42 in 7.0 mi South 11.5 mph - N/A   Overcast
3:35 AM 53.6 °F - 51.8 °F 94% 29.41 in 10.0 mi South 11.5 mph - N/A   Mostly Cloudy
3:55 AM 53.6 °F - 51.8 °F 94% 29.40 in 7.0 mi South 13.8 mph 17.3 mph N/A   Scattered Clouds
4:15 AM 53.6 °F - 51.8 °F 94% 29.42 in 7.0 mi South 11.5 mph - N/A   Mostly Cloudy
4:35 AM 53.6 °F - 51.8 °F 94% 29.42 in 10.0 mi South 11.5 mph - N/A   Overcast
4:55 AM 53.6 °F - 51.8 °F 94% 29.40 in 10.0 mi South 6.9 mph - N/A   Scattered Clouds
5:20 AM 53.6 °F - 51.8 °F 94% 29.39 in 10.0 mi South 5.8 mph - N/A   Mostly Cloudy
5:45 AM 50.0 °F - 50.0 °F 100% 29.38 in 5.0 mi SE 4.6 mph - N/A   Mostly Cloudy
6:45 AM 51.8 °F - 51.8 °F 100% 29.38 in 5.0 mi SSW 4.6 mph - N/A   Light Drizzle
7:45 AM 51.8 °F - 50.0 °F 94% 29.34 in 5.0 mi SE 6.9 mph - N/A   Overcast
8:45 AM 51.8 °F - 51.8 °F 100% 29.34 in 3.0 mi South 4.6 mph - N/A Rain Light Rain
9:45 AM 51.8 °F - 51.8 °F 100% 29.32 in 1.5 mi Calm Calm - N/A Rain Light Rain
10:55 AM 51.8 °F - 51.8 °F 100% 29.23 in 0.2 mi East 6.9 mph - N/A Fog , Rain Light Rain
11:25 AM 53.6 °F - 51.8 °F 94% 29.23 in 2.0 mi NNE 3.5 mph - N/A   Mostly Cloudy
11:45 AM 51.8 °F - 51.8 °F 100% 29.18 in 10.0 mi NE 6.9 mph - N/A   Overcast
12:15 PM 51.8 °F - 51.8 °F 100% 29.24 in 5.0 mi West 17.3 mph - N/A Rain Light Rain
12:45 PM 51.8 °F - 51.8 °F 100% 29.19 in 5.0 mi NNW 10.4 mph - N/A Rain Light Rain
1:45 PM 51.8 °F - 51.8 °F 100% 29.17 in 7.0 mi NNW 5.8 mph - N/A Rain Light Rain
2:45 PM 46.4 °F 40.4 °F 44.6 °F 93% 29.18 in 7.0 mi NW 13.8 mph - N/A Rain Light Rain
3:45 PM 46.4 °F 40.7 °F 44.6 °F 93% 29.21 in 5.0 mi WNW 12.7 mph - N/A Rain Light Rain
4:45 PM 44.6 °F 36.1 °F 42.8 °F 93% 29.25 in 5.0 mi WNW 21.9 mph 29.9 mph N/A Rain Rain
5:45 PM 44.6 °F 35.5 °F 42.8 °F 93% 29.30 in 7.0 mi WNW 25.3 mph 33.4 mph N/A Rain Rain
6:45 PM 42.8 °F 32.9 °F 41.0 °F 93% 29.35 in 10.0 mi West 26.5 mph 35.7 mph N/A   Overcast
7:45 PM 42.8 °F 32.5 °F 35.6 °F 76% 29.40 in 10.0 mi WNW 28.8 mph 40.3 mph N/A   Overcast
8:45 PM 42.8 °F 32.5 °F 35.6 °F 76% 29.44 in 10.0 mi West 28.8 mph 40.3 mph N/A   Overcast
9:45 PM 41.0 °F 29.8 °F 33.8 °F 76% 29.48 in 10.0 mi WNW 29.9 mph 38.0 mph N/A   Overcast
10:45 PM 41.0 °F 31.4 °F 33.8 °F 76% 29.50 in 10.0 mi WNW 21.9 mph 38.0 mph N/A   Mostly Cloudy
11:15 PM 39.2 °F 27.8 °F 32.0 °F 75% 29.54 in 10.0 mi West 27.6 mph 39.1 mph N/A   Overcast
11:35 PM 39.2 °F 27.6 °F 32.0 °F 75% 29.55 in 10.0 mi West 28.8 mph 40.3 mph N/A   Overcast
11:55 PM 37.4 °F 25.6 °F 30.2 °F 75% 29.56 in 10.0 mi West 26.5 mph 35.7 mph N/A   Overcast